Time,TemperatureF,DewpointF,PressureIn,WindDirection,WindDirectionDegrees,WindSpeedMPH,WindSpeedGustMPH,Humidity,HourlyPrecipIn,Conditions,Clouds,dailyrainin,SoftwareType,DateUTC
2013-12-22 00:00:00,66.8,63.1,29.92,South,181,5.0,11.0,88,0.00,,SCT090,0.00,VWS V15.00,2013-12-22 05:00:00,
2013-12-22 00:01:00,66.1,62.5,29.94,South,188,2.0,7.0,88,0.00,,RA,0.00,VWS V14.01,2013-12-22 05:01:00,
2013-12-22 00:02:00,66.1,62.5,29.94,South,182,0.0,0.0,88,0.00,,RA,0.00,VWS V14.01,2013-12-22 05:02:00,
2013-12-22 00:05:00,67.0,63.3,29.92,South,189,2.0,11.0,88,0.00,,SCT090,0.00,VWS V15.00,2013-12-22 05:05:00,
2013-12-22 00:07:00,66.1,62.5,29.94,SSW,205,6.0,9.0,88,0.00,,RA,0.00,VWS V14.01,2013-12-22 05:07:00,
2013-12-22 00:10:00,67.0,63.0,29.92,SE,144,4.0,12.0,87,0.00,,SCT090,0.00,VWS V15.00,2013-12-22 05:10:00,
2013-12-22 00:12:00,66.1,62.5,29.94,SSE,150,2.0,3.0,88,0.00,,RA,0.00,VWS V14.01,2013-12-22 05:12:00,
2013-12-22 00:15:00,67.1,63.1,29.92,South,185,1.0,9.0,87,0.00,,SCT090,0.00,VWS V15.00,2013-12-22 05:15:00,
2013-12-22 00:17:00,66.1,62.5,29.94,SSE,161,0.0,0.0,88,0.00,,RA,0.00,VWS V14.01,2013-12-22 05:17:00,
2013-12-22 00:20:00,67.1,63.1,29.92,SSE,165,5.0,10.0,87,0.00,,SCT090,0.00,VWS V15.00,2013-12-22 05:20:00,
2013-12-22 00:22:00,66.1,62.5,29.94,South,179,7.0,7.0,88,0.00,,RA,0.00,VWS V14.01,2013-12-22 05:22:00,
2013-12-22 00:25:00,67.3,63.3,29.92,SSW,203,6.0,10.0,87,0.00,,SCT090,0.00,VWS V15.00,2013-12-22 05:25:00,
2013-12-22 00:27:00,66.3,62.6,29.94,South,171,3.0,8.0,88,0.00,,RA,0.00,VWS V14.01,2013-12-22 05:27:00,
2013-12-22 00:30:00,67.3,63.3,29.91,ESE,119,0.0,14.0,87,0.00,,SCT090,0.00,VWS V15.00,2013-12-22 05:30:00,
2013-12-22 00:32:00,66.3,63.0,29.93,SE,126,2.0,13.0,89,0.00,,RA,0.00,VWS V14.01,2013-12-22 05:32:00,
2013-12-22 00:35:00,67.6,63.3,29.91,South,179,1.0,12.0,86,0.00,,SCT090,0.00,VWS V15.00,2013-12-22 05:35:00,
2013-12-22 00:37:00,66.5,62.8,29.93,SSE,160,3.0,10.0,88,0.00,,RA,0.00,VWS V14.01,2013-12-22 05:37:00,
2013-12-22 00:40:00,67.6,63.3,29.91,South,169,6.0,12.0,86,0.00,,SCT090,0.00,VWS V15.00,2013-12-22 05:40:00,
2013-12-22 00:42:00,66.5,62.8,29.93,SSW,192,5.0,5.0,88,0.00,,RA,0.00,VWS V14.01,2013-12-22 05:42:00,
2013-12-22 00:45:00,67.8,63.5,29.91,SW,229,7.0,10.0,86,0.00,,SCT090,0.00,VWS V15.00,2013-12-22 05:45:00,
2013-12-22 00:47:00,66.6,62.9,29.93,SSW,202,0.0,5.0,88,0.00,,RA,0.00,VWS V14.01,2013-12-22 05:47:00,
2013-12-22 00:50:00,67.8,63.1,29.91,SSE,157,5.0,10.0,85,0.00,,SCT090,0.00,VWS V15.00,2013-12-22 05:50:00,
2013-12-22 00:52:00,66.6,62.9,29.93,SW,220,6.0,8.0,88,0.00,,RA,0.00,VWS V14.01,2013-12-22 05:52:00,
2013-12-22 00:55:00,68.0,63.3,29.91,South,179,6.0,13.0,85,0.00,,SCT090,0.00,VWS V15.00,2013-12-22 05:55:00,
2013-12-22 00:57:00,66.8,63.1,29.93,South,181,3.0,3.0,88,0.00,,RA,0.00,VWS V14.01,2013-12-22 05:57:00,
2013-12-22 01:00:00,68.1,63.4,29.91,SSW,198,3.0,14.0,85,0.00,,SCT090,0.00,VWS V15.00,2013-12-22 06:00:00,
2013-12-22 01:02:00,66.8,63.1,29.92,SSW,198,6.0,6.0,88,0.00,,RA,0.00,VWS V14.01,2013-12-22 06:02:00,
2013-12-22 01:07:00,67.0,63.3,29.92,South,181,10.0,10.0,88,0.00,,RA,0.00,VWS V14.01,2013-12-22 06:07:00,
2013-12-22 01:10:00,68.3,63.3,29.91,SSE,167,0.0,12.0,84,0.00,,SCT090,0.00,VWS V15.00,2013-12-22 06:10:00,
2013-12-22 01:12:00,67.1,63.1,29.92,South,184,6.0,8.0,87,0.00,,RA,0.00,VWS V14.01,2013-12-22 06:12:00,
2013-12-22 01:15:00,68.5,63.5,29.91,SSW,192,2.0,10.0,84,0.00,,SCT090,0.00,VWS V15.00,2013-12-22 06:15:00,
2013-12-22 01:17:00,67.1,63.1,29.92,SSE,167,7.0,10.0,87,0.00,,RA,0.00,VWS V14.01,2013-12-22 06:17:00,
2013-12-22 01:20:00,68.6,63.2,29.91,WNW,299,0.0,16.0,83,0.00,,SCT090,0.00,VWS V15.00,2013-12-22 06:20:00,
2013-12-22 01:22:00,67.1,63.1,29.92,South,181,2.0,5.0,87,0.00,,RA,0.00,VWS V14.01,2013-12-22 06:22:00,
2013-12-22 01:25:00,68.8,63.4,29.91,SSE,168,11.0,14.0,83,0.00,,SCT090,0.00,VWS V15.00,2013-12-22 06:25:00,
2013-12-22 01:27:00,67.3,63.3,29.92,South,169,2.0,6.0,87,0.00,,RA,0.00,VWS V14.01,2013-12-22 06:27:00,
2013-12-22 01:30:00,68.8,63.1,29.92,South,171,0.0,14.0,82,0.00,,SCT090,0.00,VWS V15.00,2013-12-22 06:30:00,
2013-12-22 01:32:00,67.3,63.3,29.91,South,182,6.0,10.0,87,0.00,,RA,0.00,VWS V14.01,2013-12-22 06:32:00,
2013-12-22 01:35:00,69.0,63.3,29.92,SSW,212,0.0,20.0,82,0.00,,SCT090,0.00,VWS V15.00,2013-12-22 06:35:00,
2013-12-22 01:37:00,67.6,63.3,29.91,SSE,168,1.0,1.0,86,0.00,,RA,0.00,VWS V14.01,2013-12-22 06:37:00,
2013-12-22 01:40:00,68.8,62.7,29.92,SSE,147,15.0,15.0,81,0.00,,SCT090,0.00,VWS V15.00,2013-12-22 06:40:00,
2013-12-22 01:42:00,67.8,63.5,29.91,SE,133,4.0,10.0,86,0.00,,RA,0.00,VWS V14.01,2013-12-22 06:42:00,
2013-12-22 01:45:00,68.8,62.7,29.92,SSE,165,6.0,15.0,81,0.00,,SCT090,0.00,VWS V15.00,2013-12-22 06:45:00,
2013-12-22 01:47:00,67.8,63.5,29.91,South,176,2.0,10.0,86,0.00,,RA,0.00,VWS V14.01,2013-12-22 06:47:00,
2013-12-22 01:50:00,69.0,62.9,29.92,South,191,7.0,24.0,81,0.00,,SCT090,0.00,VWS V15.00,2013-12-22 06:50:00,
2013-12-22 01:52:00,67.8,63.1,29.91,South,178,12.0,13.0,85,0.00,,RA,0.00,VWS V14.01,2013-12-22 06:52:00,
2013-12-22 01:55:00,69.0,62.9,29.92,South,171,3.0,11.0,81,0.00,,SCT090,0.00,VWS V15.00,2013-12-22 06:55:00,
2013-12-22 01:57:00,68.0,63.3,29.91,SE,128,6.0,6.0,85,0.00,,RA,0.00,VWS V14.01,2013-12-22 06:57:00,
2013-12-22 01:59:00,68.0,63.3,29.91,SW,219,6.0,14.0,85,0.00,,RA,0.00,VWS V14.01,2013-12-22 06:59:00,
2013-12-22 02:00:00,69.0,62.9,29.92,SE,141,10.0,15.0,81,0.00,,SCT090,0.00,VWS V15.00,2013-12-22 07:00:00,
2013-12-22 02:04:00,68.1,63.4,29.91,South,181,6.0,12.0,85,0.00,,RA,0.00,VWS V14.01,2013-12-22 07:04:00,
2013-12-22 02:05:00,69.1,63.0,29.92,South,186,3.0,17.0,81,0.00,,SCT090,0.00,VWS V15.00,2013-12-22 07:05:00,
2013-12-22 02:09:00,68.3,63.3,29.91,SSW,196,0.0,12.0,84,0.00,,RA,0.00,VWS V14.01,2013-12-22 07:09:00,
2013-12-22 02:10:00,69.3,62.9,29.92,South,181,0.0,18.0,80,0.00,,SCT090,0.00,VWS V15.00,2013-12-22 07:10:00,
2013-12-22 02:14:00,68.5,63.5,29.91,SSE,167,3.0,10.0,84,0.00,,RA,0.00,VWS V14.01,2013-12-22 07:14:00,
2013-12-22 02:15:00,69.3,62.9,29.92,South,188,12.0,13.0,80,0.00,,SCT090,0.00,VWS V15.00,2013-12-22 07:15:00,
2013-12-22 02:19:00,68.5,63.1,29.91,SSW,195,12.0,16.0,83,0.00,,RA,0.00,VWS V14.01,2013-12-22 07:19:00,
2013-12-22 02:20:00,69.1,62.7,29.92,South,179,3.0,16.0,80,0.00,,SCT090,0.00,VWS V15.00,2013-12-22 07:20:00,
2013-12-22 02:24:00,68.6,63.2,29.91,SE,141,6.0,13.0,83,0.00,,RA,0.00,VWS V14.01,2013-12-22 07:24:00,
2013-12-22 02:25:00,69.1,62.7,29.92,SSW,195,8.0,10.0,80,0.00,,SCT090,0.00,VWS V15.00,2013-12-22 07:25:00,
2013-12-22 02:29:00,68.8,63.1,29.91,South,188,2.0,14.0,82,0.00,,RA,0.00,VWS V14.01,2013-12-22 07:29:00,
2013-12-22 02:30:00,69.1,62.7,29.92,ESE,119,0.0,16.0,80,0.00,,SCT090,0.00,VWS V15.00,2013-12-22 07:30:00,
2013-12-22 02:34:00,68.8,63.1,29.92,SE,141,11.0,20.0,82,0.00,,RA,0.00,VWS V14.01,2013-12-22 07:34:00,
2013-12-22 02:35:00,69.3,62.9,29.92,South,186,7.0,10.0,80,0.00,,SCT090,0.00,VWS V15.00,2013-12-22 07:35:00,
2013-12-22 02:39:00,68.8,62.7,29.92,SSE,162,4.0,9.0,81,0.00,,RA,0.00,VWS V14.01,2013-12-22 07:39:00,
2013-12-22 02:40:00,69.1,62.7,29.92,SE,140,0.0,13.0,80,0.00,,SCT090,0.00,VWS V15.00,2013-12-22 07:40:00,
2013-12-22 02:44:00,69.0,62.9,29.92,South,191,5.0,15.0,81,0.00,,RA,0.00,VWS V14.01,2013-12-22 07:44:00,
2013-12-22 02:45:00,69.3,62.9,29.92,North,0,0.0,25.0,80,0.00,,SCT090,0.00,VWS V15.00,2013-12-22 07:45:00,
2013-12-22 02:49:00,69.0,62.9,29.92,South,188,7.0,24.0,81,0.00,,RA,0.00,VWS V14.01,2013-12-22 07:49:00,
2013-12-22 02:50:00,69.3,62.9,29.92,SSE,151,0.0,17.0,80,0.00,,SCT090,0.00,VWS V15.00,2013-12-22 07:50:00,
2013-12-22 02:54:00,69.0,62.9,29.92,SSW,193,0.0,11.0,81,0.00,,RA,0.00,VWS V14.01,2013-12-22 07:54:00,
2013-12-22 02:55:00,69.3,62.9,29.92,SSW,196,0.0,19.0,80,0.00,,SCT090,0.00,VWS V15.00,2013-12-22 07:55:00,
2013-12-22 02:59:00,69.0,62.9,29.92,South,176,2.0,13.0,81,0.00,,RA,0.00,VWS V14.01,2013-12-22 07:59:00,
2013-12-22 03:00:00,69.1,62.7,29.91,South,179,3.0,20.0,80,0.00,,SCT090,0.00,VWS V15.00,2013-12-22 08:00:00,
2013-12-22 03:04:00,69.1,63.0,29.92,WSW,251,5.0,17.0,81,0.00,,RA,0.00,VWS V14.01,2013-12-22 08:04:00,
2013-12-22 03:05:00,69.1,62.7,29.91,South,191,12.0,14.0,80,0.00,,SCT090,0.00,VWS V15.00,2013-12-22 08:05:00,
2013-12-22 03:09:00,69.3,63.2,29.92,WSW,251,0.0,18.0,81,0.00,,RA,0.00,VWS V14.01,2013-12-22 08:09:00,
2013-12-22 03:10:00,69.1,62.7,29.91,SSE,157,11.0,13.0,80,0.00,,SCT090,0.00,VWS V15.00,2013-12-22 08:10:00,
2013-12-22 03:14:00,69.3,62.9,29.92,SSE,160,0.0,11.0,80,0.00,,RA,0.00,VWS V14.01,2013-12-22 08:14:00,
2013-12-22 03:15:00,69.0,62.6,29.90,South,175,2.0,13.0,80,0.00,,SCT090,0.00,VWS V15.00,2013-12-22 08:15:00,
2013-12-22 03:19:00,69.1,62.7,29.92,SSW,192,2.0,12.0,80,0.00,,RA,0.00,VWS V14.01,2013-12-22 08:19:00,
2013-12-22 03:20:00,68.8,62.7,29.90,SW,219,0.0,14.0,81,0.00,,SCT090,0.00,VWS V15.00,2013-12-22 08:20:00,
2013-12-22 03:24:00,69.1,62.7,29.92,ESE,116,0.0,10.0,80,0.00,,RA,0.00,VWS V14.01,2013-12-22 08:24:00,
2013-12-22 03:25:00,68.8,62.7,29.90,South,178,1.0,16.0,81,0.00,,SCT090,0.00,VWS V15.00,2013-12-22 08:25:00,
2013-12-22 03:29:00,69.1,62.7,29.92,South,179,1.0,16.0,80,0.00,,RA,0.00,VWS V14.01,2013-12-22 08:29:00,
2013-12-22 03:30:00,68.8,62.7,29.88,South,176,0.0,18.0,81,0.00,,SCT090,0.00,VWS V15.00,2013-12-22 08:30:00,
2013-12-22 03:34:00,69.3,62.9,29.92,SSE,158,7.0,10.0,80,0.00,,RA,0.00,VWS V14.01,2013-12-22 08:34:00,
2013-12-22 03:35:00,69.0,62.9,29.88,SSW,210,1.0,18.0,81,0.00,,SCT090,0.00,VWS V15.00,2013-12-22 08:35:00,
2013-12-22 03:39:00,69.1,62.7,29.92,East,95,0.0,12.0,80,0.00,,RA,0.00,VWS V14.01,2013-12-22 08:39:00,
2013-12-22 03:40:00,69.0,62.9,29.88,West,281,0.0,18.0,81,0.00,,SCT090,0.00,VWS V15.00,2013-12-22 08:40:00,
2013-12-22 03:44:00,69.3,62.9,29.92,South,189,11.0,25.0,80,0.00,,RA,0.00,VWS V14.01,2013-12-22 08:44:00,
2013-12-22 03:45:00,69.0,62.9,29.87,South,174,16.0,22.0,81,0.00,,SCT090,0.00,VWS V15.00,2013-12-22 08:45:00,
2013-12-22 03:49:00,69.3,62.9,29.92,South,169,0.0,17.0,80,0.00,,RA,0.00,VWS V14.01,2013-12-22 08:49:00,
2013-12-22 03:50:00,69.1,63.0,29.87,South,175,5.0,16.0,81,0.00,,SCT090,0.00,VWS V15.00,2013-12-22 08:50:00,
2013-12-22 03:54:00,69.3,62.9,29.92,SSE,150,0.0,19.0,80,0.00,,RA,0.00,VWS V14.01,2013-12-22 08:54:00,
2013-12-22 03:55:00,69.0,62.9,29.87,SSW,196,6.0,18.0,81,0.00,,SCT090,0.00,VWS V15.00,2013-12-22 08:55:00,
2013-12-22 03:59:00,69.1,62.7,29.92,South,185,14.0,16.0,80,0.00,,RA,0.00,VWS V14.01,2013-12-22 08:59:00,
2013-12-22 04:00:00,69.0,62.9,29.88,SE,131,2.0,16.0,81,0.00,,SCT090,0.00,VWS V15.00,2013-12-22 09:00:00,
2013-12-22 04:04:00,69.1,62.7,29.91,South,186,0.0,12.0,80,0.00,,RA,0.00,VWS V14.01,2013-12-22 09:04:00,
2013-12-22 04:05:00,69.0,62.9,29.88,South,172,2.0,17.0,81,0.00,,SCT090,0.00,VWS V15.00,2013-12-22 09:05:00,
2013-12-22 04:09:00,69.1,62.7,29.91,SW,232,2.0,13.0,80,0.00,,RA,0.00,VWS V14.01,2013-12-22 09:09:00,
2013-12-22 04:10:00,69.0,62.9,29.88,South,184,0.0,14.0,81,0.00,,SCT090,0.00,VWS V15.00,2013-12-22 09:10:00,
2013-12-22 04:14:00,69.0,62.6,29.91,SE,145,7.0,11.0,80,0.00,,RA,0.00,VWS V14.01,2013-12-22 09:14:00,
2013-12-22 04:15:00,69.0,63.3,29.89,East,97,0.0,19.0,82,0.00,,SCT090,0.00,VWS V15.00,2013-12-22 09:15:00,
2013-12-22 04:19:00,68.8,62.4,29.90,SSE,167,8.0,14.0,80,0.00,,RA,0.00,VWS V14.01,2013-12-22 09:19:00,
2013-12-22 04:20:00,68.8,63.1,29.89,SSE,150,1.0,12.0,82,0.00,,SCT090,0.00,VWS V15.00,2013-12-22 09:20:00,
2013-12-22 04:24:00,68.8,62.7,29.90,South,189,0.0,16.0,81,0.00,,RA,0.00,VWS V14.01,2013-12-22 09:24:00,
2013-12-22 04:25:00,68.8,63.1,29.89,WNW,292,1.0,11.0,82,0.00,,SCT090,0.00,VWS V15.00,2013-12-22 09:25:00,
2013-12-22 04:29:00,68.8,62.7,29.90,NW,309,5.0,18.0,81,0.00,,RA,0.00,VWS V14.01,2013-12-22 09:29:00,
2013-12-22 04:30:00,68.8,63.1,29.90,SSW,209,7.0,18.0,82,0.00,,SCT090,0.00,VWS V15.00,2013-12-22 09:30:00,
2013-12-22 04:34:00,68.8,62.7,29.88,South,188,6.0,18.0,81,0.00,,RA,0.00,VWS V14.01,2013-12-22 09:34:00,
2013-12-22 04:35:00,68.8,63.1,29.90,South,189,1.0,16.0,82,0.00,,SCT090,0.00,VWS V15.00,2013-12-22 09:35:00,
2013-12-22 04:39:00,69.0,62.9,29.88,SSE,154,11.0,18.0,81,0.00,,RA,0.00,VWS V14.01,2013-12-22 09:39:00,
2013-12-22 04:40:00,68.8,63.4,29.90,SE,144,1.0,16.0,83,0.00,,SCT090,0.00,VWS V15.00,2013-12-22 09:40:00,
2013-12-22 04:44:00,69.0,62.9,29.88,SSW,206,5.0,19.0,81,0.00,,RA,0.00,VWS V14.01,2013-12-22 09:44:00,
2013-12-22 04:45:00,68.6,63.2,29.91,WSW,244,9.0,9.0,83,0.00,,SCT090,0.00,VWS V15.00,2013-12-22 09:45:00,
2013-12-22 04:49:00,69.1,63.0,29.87,SSE,167,0.0,16.0,81,0.00,,RA,0.00,VWS V14.01,2013-12-22 09:49:00,
2013-12-22 04:50:00,68.6,63.2,29.91,South,176,0.0,19.0,83,0.00,,SCT090,0.00,VWS V15.00,2013-12-22 09:50:00,
2013-12-22 04:54:00,69.0,62.9,29.87,SSW,205,0.0,18.0,81,0.00,,RA,0.00,VWS V14.01,2013-12-22 09:54:00,
2013-12-22 04:55:00,68.8,63.4,29.91,South,169,4.0,14.0,83,0.00,,SCT090,0.00,VWS V15.00,2013-12-22 09:55:00,
2013-12-22 04:59:00,69.0,62.9,29.87,South,178,0.0,16.0,81,0.00,,RA,0.00,VWS V14.01,2013-12-22 09:59:00,
2013-12-22 05:00:00,68.8,63.4,29.91,South,175,3.0,17.0,83,0.00,,SCT090,0.00,VWS V15.00,2013-12-22 10:00:00,
2013-12-22 05:04:00,69.0,62.9,29.88,SSW,192,2.0,17.0,81,0.00,,RA,0.00,VWS V14.01,2013-12-22 10:04:00,
2013-12-22 05:05:00,68.6,63.2,29.91,SSE,164,6.0,14.0,83,0.00,,SCT090,0.00,VWS V15.00,2013-12-22 10:05:00,
2013-12-22 05:09:00,69.0,62.9,29.88,South,172,2.0,14.0,81,0.00,,RA,0.00,VWS V14.01,2013-12-22 10:09:00,
2013-12-22 05:10:00,68.6,63.6,29.91,SSE,160,2.0,18.0,84,0.00,,SCT090,0.00,VWS V15.00,2013-12-22 10:10:00,
2013-12-22 05:14:00,69.0,62.9,29.88,SSW,192,0.0,18.0,81,0.00,,RA,0.00,VWS V14.01,2013-12-22 10:14:00,
2013-12-22 05:15:00,68.6,63.6,29.91,SW,230,4.0,13.0,84,0.00,,SCT090,0.00,VWS V15.00,2013-12-22 10:15:00,
2013-12-22 05:19:00,68.8,63.1,29.89,South,186,2.0,11.0,82,0.00,,RA,0.00,VWS V14.01,2013-12-22 10:19:00,
2013-12-22 05:20:00,68.5,63.5,29.91,SSE,165,0.0,16.0,84,0.00,,SCT090,0.00,VWS V15.00,2013-12-22 10:20:00,
2013-12-22 05:24:00,68.8,63.1,29.89,South,176,3.0,7.0,82,0.00,,RA,0.00,VWS V14.01,2013-12-22 10:24:00,
2013-12-22 05:25:00,68.5,63.5,29.91,SSE,165,13.0,14.0,84,0.00,,SCT090,0.00,VWS V15.00,2013-12-22 10:25:00,
2013-12-22 05:29:00,68.8,63.1,29.89,SSW,192,12.0,12.0,82,0.00,,RA,0.00,VWS V14.01,2013-12-22 10:29:00,
2013-12-22 05:30:00,68.5,63.5,29.91,SSW,195,8.0,19.0,84,0.00,,SCT090,0.00,VWS V15.00,2013-12-22 10:30:00,
2013-12-22 05:34:00,68.8,63.1,29.90,South,186,1.0,13.0,82,0.00,,RA,0.00,VWS V14.01,2013-12-22 10:34:00,
2013-12-22 05:35:00,68.3,63.3,29.91,South,182,6.0,12.0,84,0.00,,SCT090,0.00,VWS V15.00,2013-12-22 10:35:00,
2013-12-22 05:39:00,68.8,63.1,29.90,South,182,2.0,16.0,82,0.00,,RA,0.00,VWS V14.01,2013-12-22 10:39:00,
2013-12-22 05:40:00,68.5,63.8,29.91,SSW,210,14.0,15.0,85,0.00,,SCT090,0.00,VWS V15.00,2013-12-22 10:40:00,
2013-12-22 05:44:00,68.6,63.2,29.90,SSW,196,3.0,7.0,83,0.00,,RA,0.00,VWS V14.01,2013-12-22 10:44:00,
2013-12-22 05:45:00,68.5,63.8,29.92,South,174,0.0,24.0,85,0.00,,SCT090,0.00,VWS V15.00,2013-12-22 10:45:00,
2013-12-22 05:49:00,68.6,63.2,29.91,SSW,202,6.0,13.0,83,0.00,,RA,0.00,VWS V14.01,2013-12-22 10:49:00,
2013-12-22 05:50:00,68.6,63.9,29.92,SW,222,6.0,21.0,85,0.00,,SCT090,0.00,VWS V15.00,2013-12-22 10:50:00,
2013-12-22 05:54:00,68.8,63.4,29.91,SE,143,6.0,14.0,83,0.00,,RA,0.00,VWS V14.01,2013-12-22 10:54:00,
2013-12-22 05:55:00,68.6,63.9,29.92,SW,217,0.0,12.0,85,0.00,,SCT090,0.00,VWS V15.00,2013-12-22 10:55:00,
2013-12-22 05:59:00,68.8,63.4,29.91,South,181,0.0,17.0,83,0.00,,RA,0.00,VWS V14.01,2013-12-22 10:59:00,
2013-12-22 06:00:00,68.6,63.9,29.93,West,263,4.0,12.0,85,0.00,,SCT090,0.00,VWS V15.00,2013-12-22 11:00:00,
2013-12-22 06:04:00,68.6,63.2,29.91,South,176,3.0,14.0,83,0.00,,RA,0.00,VWS V14.01,2013-12-22 11:04:00,
2013-12-22 06:05:00,68.6,63.9,29.93,South,184,2.0,10.0,85,0.00,,SCT090,0.00,VWS V15.00,2013-12-22 11:05:00,
2013-12-22 06:09:00,68.6,63.6,29.91,SSW,206,4.0,18.0,84,0.00,,RA,0.00,VWS V14.01,2013-12-22 11:09:00,
2013-12-22 06:10:00,68.6,63.9,29.93,SSW,196,3.0,10.0,85,0.00,,SCT090,0.00,VWS V15.00,2013-12-22 11:10:00,
2013-12-22 06:14:00,68.6,63.6,29.91,SW,216,0.0,13.0,84,0.00,,RA,0.00,VWS V14.01,2013-12-22 11:14:00,
2013-12-22 06:15:00,68.6,63.9,29.94,SSE,161,3.0,11.0,85,0.00,,SCT090,0.00,VWS V15.00,2013-12-22 11:15:00,
2013-12-22 06:19:00,68.6,63.6,29.91,South,172,0.0,16.0,84,0.00,,RA,0.00,VWS V14.01,2013-12-22 11:19:00,
2013-12-22 06:20:00,68.8,64.1,29.94,West,277,0.0,11.0,85,0.00,,SCT090,0.00,VWS V15.00,2013-12-22 11:20:00,
2013-12-22 06:24:00,68.5,63.5,29.91,South,181,0.0,13.0,84,0.00,,RA,0.00,VWS V14.01,2013-12-22 11:24:00,
2013-12-22 06:25:00,68.8,64.1,29.94,South,172,0.0,12.0,85,0.00,,SCT090,0.00,VWS V15.00,2013-12-22 11:25:00,
2013-12-22 06:29:00,68.5,63.5,29.91,South,184,3.0,19.0,84,0.00,,RA,0.00,VWS V14.01,2013-12-22 11:29:00,
2013-12-22 06:30:00,68.6,63.9,29.95,South,184,0.0,7.0,85,0.00,,SCT090,0.00,VWS V15.00,2013-12-22 11:30:00,
2013-12-22 06:34:00,68.3,63.3,29.91,SSE,167,6.0,12.0,84,0.00,,RA,0.00,VWS V14.01,2013-12-22 11:34:00,
2013-12-22 06:35:00,68.8,64.1,29.95,SSE,167,7.0,8.0,85,0.00,,SCT090,0.00,VWS V15.00,2013-12-22 11:35:00,
2013-12-22 06:39:00,68.3,63.3,29.91,South,185,7.0,13.0,84,0.00,,RA,0.00,VWS V14.01,2013-12-22 11:39:00,
2013-12-22 06:40:00,68.8,64.1,29.95,ESE,113,5.0,8.0,85,0.00,,SCT090,0.00,VWS V15.00,2013-12-22 11:40:00,
2013-12-22 06:44:00,68.5,63.8,29.91,WSW,244,10.0,24.0,85,0.00,,RA,0.00,VWS V14.01,2013-12-22 11:44:00,
2013-12-22 06:45:00,68.8,64.1,29.95,SSE,155,0.0,13.0,85,0.00,,SCT090,0.00,VWS V15.00,2013-12-22 11:45:00,
2013-12-22 06:49:00,68.5,63.8,29.92,South,169,3.0,14.0,85,0.00,,RA,0.00,VWS V14.01,2013-12-22 11:49:00,
2013-12-22 06:50:00,68.8,64.4,29.95,NNW,329,0.0,8.0,86,0.00,,SCT090,0.00,VWS V15.00,2013-12-22 11:50:00,
2013-12-22 06:54:00,68.6,63.9,29.92,SSE,165,3.0,11.0,85,0.00,,RA,0.00,VWS V14.01,2013-12-22 11:54:00,
2013-12-22 06:55:00,68.8,64.4,29.95,WSW,240,6.0,10.0,86,0.00,,SCT090,0.00,VWS V15.00,2013-12-22 11:55:00,
2013-12-22 06:59:00,68.6,63.9,29.92,SSW,202,11.0,12.0,85,0.00,,RA,0.00,VWS V14.01,2013-12-22 11:59:00,
2013-12-22 07:00:00,69.0,64.6,29.96,SE,137,1.0,10.0,86,0.00,,SCT090,0.00,VWS V15.00,2013-12-22 12:00:00,
2013-12-22 07:04:00,68.6,63.9,29.93,South,188,1.0,10.0,85,0.00,,RA,0.00,VWS V14.01,2013-12-22 12:04:00,
2013-12-22 07:05:00,69.0,64.3,29.96,South,191,0.0,8.0,85,0.00,,SCT090,0.00,VWS V15.00,2013-12-22 12:05:00,
2013-12-22 07:09:00,68.6,63.9,29.93,West,272,3.0,7.0,85,0.00,,RA,0.00,VWS V14.01,2013-12-22 12:09:00,
2013-12-22 07:10:00,69.0,64.3,29.96,South,172,14.0,14.0,85,0.00,,SCT090,0.00,VWS V15.00,2013-12-22 12:10:00,
2013-12-22 07:14:00,68.6,63.9,29.93,SSE,147,0.0,7.0,85,0.00,,RA,0.00,VWS V14.01,2013-12-22 12:14:00,
2013-12-22 07:15:00,69.0,64.3,29.96,SSE,167,0.0,14.0,85,0.00,,SCT090,0.00,VWS V15.00,2013-12-22 12:15:00,
2013-12-22 07:19:00,68.6,63.9,29.94,WSW,257,0.0,7.0,85,0.00,,RA,0.00,VWS V14.01,2013-12-22 12:19:00,
2013-12-22 07:20:00,69.1,64.4,29.96,SSW,209,2.0,12.0,85,0.00,,SCT090,0.00,VWS V15.00,2013-12-22 12:20:00,
2013-12-22 07:24:00,68.8,64.1,29.94,NW,312,1.0,12.0,85,0.00,,RA,0.00,VWS V14.01,2013-12-22 12:24:00,
2013-12-22 07:25:00,69.1,64.4,29.96,South,171,2.0,12.0,85,0.00,,SCT090,0.00,VWS V15.00,2013-12-22 12:25:00,
2013-12-22 07:29:00,68.8,64.1,29.94,SSE,167,0.0,7.0,85,0.00,,RA,0.00,VWS V14.01,2013-12-22 12:29:00,
2013-12-22 07:30:00,69.3,64.6,29.95,SSW,193,3.0,12.0,85,0.00,,SCT090,0.00,VWS V15.00,2013-12-22 12:30:00,
2013-12-22 07:34:00,68.6,63.9,29.95,South,176,2.0,6.0,85,0.00,,RA,0.00,VWS V14.01,2013-12-22 12:34:00,
2013-12-22 07:35:00,69.5,64.8,29.95,South,188,0.0,11.0,85,0.00,,SCT090,0.00,VWS V15.00,2013-12-22 12:35:00,
2013-12-22 07:39:00,68.8,64.1,29.95,SSW,205,2.0,8.0,85,0.00,,RA,0.00,VWS V14.01,2013-12-22 12:39:00,
2013-12-22 07:40:00,69.6,64.9,29.95,SSE,154,1.0,11.0,85,0.00,,SCT090,0.00,VWS V15.00,2013-12-22 12:40:00,
2013-12-22 07:44:00,68.8,64.1,29.95,SSE,151,0.0,13.0,85,0.00,,RA,0.00,VWS V14.01,2013-12-22 12:44:00,
2013-12-22 07:45:00,70.0,64.9,29.95,SSW,203,5.0,11.0,84,0.00,,SCT090,0.00,VWS V15.00,2013-12-22 12:45:00,
2013-12-22 07:49:00,68.8,64.4,29.95,SSE,158,1.0,8.0,86,0.00,,RA,0.00,VWS V14.01,2013-12-22 12:49:00,
2013-12-22 07:50:00,70.0,64.9,29.95,WSW,240,8.0,13.0,84,0.00,,SCT090,0.00,VWS V15.00,2013-12-22 12:50:00,
2013-12-22 07:54:00,68.8,64.4,29.95,SSW,192,7.0,9.0,86,0.00,,RA,0.00,VWS V14.01,2013-12-22 12:54:00,
2013-12-22 07:55:00,70.1,64.7,29.95,SSW,193,7.0,12.0,83,0.00,,SCT090,0.00,VWS V15.00,2013-12-22 12:55:00,
2013-12-22 07:59:00,68.8,64.4,29.95,South,181,0.0,10.0,86,0.00,,RA,0.00,VWS V14.01,2013-12-22 12:59:00,
2013-12-22 08:00:00,70.3,64.9,29.96,South,182,5.0,10.0,83,0.00,,SCT090,0.00,VWS V15.00,2013-12-22 13:00:00,
2013-12-22 08:04:00,69.0,64.3,29.96,SSE,164,0.0,8.0,85,0.00,,RA,0.00,VWS V14.01,2013-12-22 13:04:00,
2013-12-22 08:05:00,70.3,64.9,29.96,SSW,206,6.0,14.0,83,0.00,,SCT090,0.00,VWS V15.00,2013-12-22 13:05:00,
2013-12-22 08:09:00,69.0,64.3,29.96,WNW,284,0.0,11.0,85,0.00,,RA,0.00,VWS V14.01,2013-12-22 13:09:00,
2013-12-22 08:10:00,70.5,65.1,29.96,South,169,2.0,14.0,83,0.00,,SCT090,0.00,VWS V15.00,2013-12-22 13:10:00,
2013-12-22 08:14:00,69.0,64.3,29.96,South,185,7.0,14.0,85,0.00,,RA,0.00,VWS V14.01,2013-12-22 13:14:00,
2013-12-22 08:15:00,70.5,65.1,29.96,South,171,0.0,13.0,83,0.00,,SCT090,0.00,VWS V15.00,2013-12-22 13:15:00,
2013-12-22 08:19:00,69.1,64.4,29.96,South,191,3.0,12.0,85,0.00,,RA,0.00,VWS V14.01,2013-12-22 13:19:00,
2013-12-22 08:20:00,70.5,65.1,29.96,South,175,2.0,10.0,83,0.00,,SCT090,0.00,VWS V15.00,2013-12-22 13:20:00,
2013-12-22 08:24:00,69.1,64.4,29.96,SSE,157,1.0,12.0,85,0.00,,RA,0.00,VWS V14.01,2013-12-22 13:24:00,
2013-12-22 08:25:00,70.6,65.2,29.96,SSW,193,0.0,10.0,83,0.00,,SCT090,0.00,VWS V15.00,2013-12-22 13:25:00,
2013-12-22 08:29:00,69.1,64.4,29.96,SSW,202,6.0,12.0,85,0.00,,RA,0.00,VWS V14.01,2013-12-22 13:29:00,
2013-12-22 08:30:00,70.8,65.0,29.97,SE,130,1.0,11.0,82,0.00,,SCT090,0.00,VWS V15.00,2013-12-22 13:30:00,
2013-12-22 08:34:00,69.3,64.6,29.95,South,188,6.0,11.0,85,0.00,,RA,0.00,VWS V14.01,2013-12-22 13:34:00,
2013-12-22 08:35:00,71.0,65.2,29.97,SSW,193,0.0,11.0,82,0.00,,SCT090,0.00,VWS V15.00,2013-12-22 13:35:00,
2013-12-22 08:39:00,69.6,64.9,29.95,South,184,6.0,11.0,85,0.00,,RA,0.00,VWS V14.01,2013-12-22 13:39:00,
2013-12-22 08:40:00,71.0,65.2,29.97,SSE,167,1.0,13.0,82,0.00,,SCT090,0.00,VWS V15.00,2013-12-22 13:40:00,
2013-12-22 08:44:00,69.8,64.8,29.95,SSW,209,3.0,11.0,84,0.00,,RA,0.00,VWS V14.01,2013-12-22 13:44:00,
2013-12-22 08:45:00,71.5,65.7,29.98,SSE,150,2.0,13.0,82,0.00,,SCT090,0.00,VWS V15.00,2013-12-22 13:45:00,
2013-12-22 08:49:00,70.0,64.9,29.95,SSW,205,5.0,9.0,84,0.00,,RA,0.00,VWS V14.01,2013-12-22 13:49:00,
2013-12-22 08:50:00,71.8,65.7,29.98,ESE,104,1.0,10.0,81,0.00,,SCT090,0.00,VWS V15.00,2013-12-22 13:50:00,
2013-12-22 08:54:00,70.1,65.1,29.95,SSW,202,2.0,9.0,84,0.00,,RA,0.00,VWS V14.01,2013-12-22 13:54:00,
2013-12-22 08:55:00,71.8,65.3,29.98,SSW,195,1.0,20.0,80,0.00,,SCT090,0.00,VWS V15.00,2013-12-22 13:55:00,
2013-12-22 08:59:00,70.3,64.9,29.95,SSE,160,3.0,10.0,83,0.00,,RA,0.00,VWS V14.01,2013-12-22 13:59:00,
2013-12-22 09:00:00,71.8,65.3,29.98,SSE,158,0.0,8.0,80,0.00,,SCT090,0.00,VWS V15.00,2013-12-22 14:00:00,
2013-12-22 09:04:00,70.3,64.9,29.96,SSW,208,3.0,10.0,83,0.00,,RA,0.00,VWS V14.01,2013-12-22 14:04:00,
2013-12-22 09:05:00,71.8,65.3,29.98,South,178,0.0,8.0,80,0.00,,SCT090,0.00,VWS V15.00,2013-12-22 14:05:00,
2013-12-22 09:09:00,70.5,65.1,29.96,SSE,154,0.0,14.0,83,0.00,,RA,0.00,VWS V14.01,2013-12-22 14:09:00,
2013-12-22 09:10:00,71.7,65.2,29.98,SE,144,0.0,10.0,80,0.00,,SCT090,0.00,VWS V15.00,2013-12-22 14:10:00,
2013-12-22 09:14:00,70.5,65.1,29.96,South,172,4.0,13.0,83,0.00,,RA,0.00,VWS V14.01,2013-12-22 14:14:00,
2013-12-22 09:15:00,71.8,65.3,29.98,SSE,162,0.0,11.0,80,0.00,,SCT090,0.00,VWS V15.00,2013-12-22 14:15:00,
2013-12-22 09:19:00,70.5,65.1,29.96,SE,145,3.0,10.0,83,0.00,,RA,0.00,VWS V14.01,2013-12-22 14:19:00,
2013-12-22 09:20:00,71.7,65.2,29.98,South,186,2.0,10.0,80,0.00,,SCT090,0.00,VWS V15.00,2013-12-22 14:20:00,
2013-12-22 09:24:00,70.6,65.2,29.96,South,171,3.0,10.0,83,0.00,,RA,0.00,VWS V14.01,2013-12-22 14:24:00,
2013-12-22 09:25:00,71.7,65.2,29.98,SSW,202,0.0,8.0,80,0.00,,SCT090,0.00,VWS V15.00,2013-12-22 14:25:00,
2013-12-22 09:29:00,70.8,65.0,29.96,SSW,195,11.0,11.0,82,0.00,,RA,0.00,VWS V14.01,2013-12-22 14:29:00,
2013-12-22 09:30:00,71.7,65.2,29.97,SSW,198,2.0,11.0,80,0.00,,SCT090,0.00,VWS V15.00,2013-12-22 14:30:00,
2013-12-22 09:34:00,70.8,65.0,29.97,South,188,5.0,11.0,82,0.00,,RA,0.00,VWS V14.01,2013-12-22 14:34:00,
2013-12-22 09:35:00,71.7,65.2,29.97,South,176,5.0,13.0,80,0.00,,SCT090,0.00,VWS V15.00,2013-12-22 14:35:00,
2013-12-22 09:39:00,71.0,65.2,29.97,SSE,164,0.0,13.0,82,0.00,,RA,0.00,VWS V14.01,2013-12-22 14:39:00,
2013-12-22 09:40:00,71.8,65.3,29.97,WNW,284,5.0,16.0,80,0.00,,SCT090,0.00,VWS V15.00,2013-12-22 14:40:00,
2013-12-22 09:44:00,71.2,65.4,29.97,SSE,165,0.0,13.0,82,0.00,,RA,0.00,VWS V14.01,2013-12-22 14:44:00,
2013-12-22 09:45:00,71.5,65.4,30.01,WNW,298,0.0,20.0,81,0.10,,SCT090,0.10,VWS V15.00,2013-12-22 14:45:00,
2013-12-22 09:49:00,71.7,65.6,29.98,SSE,157,0.0,10.0,81,0.00,,RA,0.00,VWS V14.01,2013-12-22 14:49:00,
2013-12-22 09:50:00,70.1,64.4,30.01,West,277,2.0,16.0,82,0.11,,SCT090,0.11,VWS V15.00,2013-12-22 14:50:00,
2013-12-22 09:54:00,71.8,65.3,29.98,South,182,0.0,20.0,80,0.00,,RA,0.00,VWS V14.01,2013-12-22 14:54:00,
2013-12-22 09:55:00,68.8,63.8,30.01,SW,230,0.0,13.0,84,0.18,,SCT090,0.18,VWS V15.00,2013-12-22 14:55:00,
2013-12-22 09:59:00,71.8,65.7,29.98,SSE,155,0.0,8.0,81,0.00,,RA,0.00,VWS V14.01,2013-12-22 14:59:00,
2013-12-22 10:00:00,68.0,63.3,30.01,South,174,2.0,20.0,85,0.22,,SCT090,0.22,VWS V15.00,2013-12-22 15:00:00,
2013-12-22 10:04:00,71.8,65.3,29.98,SE,141,6.0,7.0,80,0.00,,RA,0.00,VWS V14.01,2013-12-22 15:04:00,
2013-12-22 10:05:00,67.1,62.8,30.01,WSW,246,0.0,8.0,86,0.27,,SCT090,0.27,VWS V15.00,2013-12-22 15:05:00,
2013-12-22 10:09:00,71.8,65.3,29.98,SSE,162,6.0,10.0,80,0.00,,RA,0.00,VWS V14.01,2013-12-22 15:09:00,
2013-12-22 10:10:00,66.8,62.8,30.01,East,88,0.0,5.0,87,0.29,,SCT090,0.29,VWS V15.00,2013-12-22 15:10:00,
2013-12-22 10:14:00,71.7,65.2,29.98,SSE,150,0.0,11.0,80,0.00,,RA,0.00,VWS V14.01,2013-12-22 15:14:00,
2013-12-22 10:15:00,66.6,62.9,30.01,SSE,158,0.0,11.0,88,0.38,,SCT090,0.38,VWS V15.00,2013-12-22 15:15:00,
2013-12-22 10:19:00,71.7,65.2,29.98,SW,223,2.0,10.0,80,0.00,,RA,0.00,VWS V14.01,2013-12-22 15:19:00,
2013-12-22 10:24:00,71.7,65.2,29.98,SSW,203,5.0,8.0,80,0.00,,RA,0.00,VWS V14.01,2013-12-22 15:24:00,
2013-12-22 10:25:00,66.5,63.5,30.01,SSE,151,0.0,13.0,90,0.53,,SCT090,0.53,VWS V15.00,2013-12-22 15:25:00,
2013-12-22 10:29:00,71.7,65.2,29.98,SSW,203,3.0,10.0,80,0.00,,RA,0.00,VWS V14.01,2013-12-22 15:29:00,
2013-12-22 10:30:00,66.3,63.3,30.00,WSW,257,0.0,7.0,90,0.55,,SCT090,0.55,VWS V15.00,2013-12-22 15:30:00,
2013-12-22 10:34:00,71.7,65.2,29.97,South,182,6.0,13.0,80,0.00,,RA,0.00,VWS V14.01,2013-12-22 15:34:00,
2013-12-22 10:35:00,66.3,63.6,30.00,WSW,247,2.0,13.0,91,0.56,,SCT090,0.56,VWS V15.00,2013-12-22 15:35:00,
2013-12-22 10:39:00,71.8,65.3,29.97,South,172,2.0,16.0,80,0.00,,RA,0.00,VWS V14.01,2013-12-22 15:39:00,
2013-12-22 10:40:00,66.3,63.9,30.00,WSW,248,0.0,7.0,92,0.58,,SCT090,0.58,VWS V15.00,2013-12-22 15:40:00,
2013-12-22 10:44:00,71.8,65.7,29.97,WNW,296,1.0,20.0,81,0.09,,RA,0.09,VWS V14.01,2013-12-22 15:44:00,
2013-12-22 10:45:00,66.3,63.9,30.00,SSW,193,2.0,11.0,92,0.60,,SCT090,0.60,VWS V15.00,2013-12-22 15:45:00,
2013-12-22 10:49:00,70.8,65.0,30.01,WNW,292,3.0,16.0,82,0.10,,RA,0.10,VWS V14.01,2013-12-22 15:49:00,
2013-12-22 10:50:00,66.3,63.9,30.00,WSW,240,0.0,5.0,92,0.53,,SCT090,0.63,VWS V15.00,2013-12-22 15:50:00,
2013-12-22 10:54:00,69.1,63.7,30.01,SW,233,8.0,13.0,83,0.14,,RA,0.14,VWS V14.01,2013-12-22 15:54:00,
2013-12-22 10:55:00,66.3,63.9,30.00,West,263,0.0,4.0,92,0.52,,SCT090,0.63,VWS V15.00,2013-12-22 15:55:00,
2013-12-22 10:59:00,68.3,63.6,30.01,WSW,244,0.0,3.0,85,0.20,,RA,0.20,VWS V14.01,2013-12-22 15:59:00,
2013-12-22 11:00:00,66.3,64.2,29.99,WNW,296,2.0,7.0,93,0.45,,SCT090,0.63,VWS V15.00,2013-12-22 16:00:00,
2013-12-22 11:04:00,67.3,63.0,30.01,NW,312,0.0,8.0,86,0.26,,RA,0.26,VWS V14.01,2013-12-22 16:04:00,
2013-12-22 11:05:00,66.3,64.2,29.99,WNW,301,3.0,13.0,93,0.44,,SCT090,0.66,VWS V15.00,2013-12-22 16:05:00,
2013-12-22 11:09:00,67.0,63.0,30.01,NNW,330,0.0,5.0,87,0.29,,RA,0.29,VWS V14.01,2013-12-22 16:09:00,
2013-12-22 11:10:00,65.8,63.4,29.99,West,267,0.0,7.0,92,0.44,,SCT090,0.71,VWS V15.00,2013-12-22 16:10:00,
2013-12-22 11:14:00,66.6,62.9,30.01,NW,311,0.0,11.0,88,0.36,,RA,0.36,VWS V14.01,2013-12-22 16:14:00,
2013-12-22 11:15:00,65.0,62.9,30.00,WSW,251,0.0,5.0,93,0.43,,SCT090,0.72,VWS V15.00,2013-12-22 16:15:00,
2013-12-22 11:19:00,66.6,63.3,30.01,SE,136,0.0,13.0,89,0.44,,RA,0.45,VWS V14.01,2013-12-22 16:19:00,
2013-12-22 11:20:00,64.7,62.6,30.00,NW,316,1.0,6.0,93,0.35,,SCT090,0.73,VWS V15.00,2013-12-22 16:20:00,
2013-12-22 11:24:00,66.5,63.5,30.01,SW,216,0.0,8.0,90,0.50,,RA,0.50,VWS V14.01,2013-12-22 16:24:00,
2013-12-22 11:25:00,64.4,62.3,30.00,West,268,3.0,6.0,93,0.26,,SCT090,0.73,VWS V15.00,2013-12-22 16:25:00,
2013-12-22 11:30:00,66.3,63.3,30.01,SW,222,0.0,7.0,90,0.55,,RA,0.55,VWS V14.01,2013-12-22 16:30:00,
2013-12-22 11:35:00,66.3,63.6,30.00,SSW,205,0.0,5.0,91,0.56,,RA,0.56,VWS V14.01,2013-12-22 16:35:00,
2013-12-22 11:40:00,66.3,63.6,30.00,West,264,0.0,7.0,91,0.58,,RA,0.58,VWS V14.01,2013-12-22 16:40:00,
2013-12-22 11:45:00,66.1,63.7,30.00,West,281,3.0,5.0,92,0.59,,RA,0.59,VWS V14.01,2013-12-22 16:45:00,
2013-12-22 11:50:00,66.3,63.9,30.00,WSW,244,0.0,5.0,92,0.52,,RA,0.62,VWS V14.01,2013-12-22 16:50:00,
2013-12-22 11:54:00,66.3,63.9,30.00,WNW,301,0.0,4.0,92,0.52,,RA,0.63,VWS V14.01,2013-12-22 16:54:00,
2013-12-22 11:55:00,62.3,60.6,30.00,WNW,301,0.0,8.0,94,0.11,,SCT090,0.74,VWS V15.00,2013-12-22 16:55:00,
2013-12-22 11:59:00,66.3,64.2,30.00,NNW,342,4.0,7.0,93,0.45,,RA,0.63,VWS V14.01,2013-12-22 16:59:00,
2013-12-22 12:00:00,62.0,60.3,30.01,WSW,253,1.0,5.0,94,0.16,,SCT090,0.79,VWS V15.00,2013-12-22 17:00:00,
2013-12-22 12:04:00,66.3,64.2,29.99,NW,304,5.0,7.0,93,0.43,,RA,0.65,VWS V14.01,2013-12-22 17:04:00,
2013-12-22 12:05:00,61.7,60.0,30.01,West,275,0.0,2.0,94,0.17,,SCT090,0.80,VWS V15.00,2013-12-22 17:05:00,
2013-12-22 12:10:00,66.0,63.6,29.99,NNW,347,0.0,7.0,92,0.42,,RA,0.69,VWS V14.01,2013-12-22 17:10:00,
2013-12-22 12:15:00,65.2,62.8,29.99,WSW,251,0.0,5.0,92,0.43,,RA,0.72,VWS V14.01,2013-12-22 17:15:00,
2013-12-22 12:20:00,64.9,62.8,30.00,NW,318,5.0,6.0,93,0.35,,RA,0.73,VWS V14.01,2013-12-22 17:20:00,
2013-12-22 12:25:00,64.5,62.4,30.00,NW,309,0.0,1.0,93,0.26,,RA,0.73,VWS V14.01,2013-12-22 17:25:00,
2013-12-22 12:30:00,64.0,61.9,30.00,NW,311,0.0,3.0,93,0.20,,RA,0.73,VWS V14.01,2013-12-22 17:30:00,
2013-12-22 12:35:00,63.6,61.5,30.00,NNW,335,0.0,6.0,93,0.18,,RA,0.73,VWS V14.01,2013-12-22 17:35:00,
2013-12-22 12:40:00,63.1,61.0,30.00,NNW,328,0.0,2.0,93,0.17,,RA,0.73,VWS V14.01,2013-12-22 17:40:00,
2013-12-22 12:45:00,62.9,61.2,30.00,WNW,299,0.0,3.0,94,0.15,,RA,0.73,VWS V14.01,2013-12-22 17:45:00,
2013-12-22 12:50:00,62.8,61.0,30.00,WNW,294,1.0,3.0,94,0.14,,RA,0.74,VWS V14.01,2013-12-22 17:50:00,
2013-12-22 12:55:00,62.4,60.7,30.00,NW,311,0.0,8.0,94,0.11,,RA,0.74,VWS V14.01,2013-12-22 17:55:00,
2013-12-22 13:00:00,62.1,60.4,30.00,NNW,329,0.0,5.0,94,0.14,,RA,0.77,VWS V14.01,2013-12-22 18:00:00,
2013-12-22 13:05:00,61.8,60.1,30.01,WNW,285,2.0,2.0,94,0.17,,RA,0.80,VWS V14.01,2013-12-22 18:05:00,
2013-12-22 13:10:00,61.7,60.0,30.01,West,274,0.0,0.0,94,0.15,,RA,0.81,VWS V14.01,2013-12-22 18:10:00,
2013-12-22 13:15:00,61.7,60.0,30.01,West,274,0.0,0.0,94,0.12,,RA,0.83,VWS V14.01,2013-12-22 18:15:00,
2013-12-22 13:20:00,61.7,60.3,30.00,West,274,0.0,0.0,95,0.12,,RA,0.84,VWS V14.01,2013-12-22 18:20:00,
2013-12-22 13:25:00,61.3,59.6,30.00,SW,233,0.0,8.0,94,0.11,,RA,0.84,VWS V14.01,2013-12-22 18:25:00,
2013-12-22 13:30:00,61.0,59.3,30.00,West,275,0.0,0.0,94,0.12,,RA,0.85,VWS V14.01,2013-12-22 18:30:00,
2013-12-22 13:35:00,60.9,59.2,30.01,SW,236,1.0,6.0,94,0.13,,RA,0.86,VWS V14.01,2013-12-22 18:35:00,
2013-12-22 13:40:00,60.7,59.0,30.01,WNW,288,0.0,7.0,94,0.14,,RA,0.87,VWS V14.01,2013-12-22 18:40:00,
2013-12-22 13:45:00,60.6,59.2,30.01,WNW,289,0.0,0.0,95,0.15,,RA,0.88,VWS V14.01,2013-12-22 18:45:00,
2013-12-22 13:50:00,60.7,59.3,30.00,West,265,0.0,0.0,95,0.15,,RA,0.88,VWS V14.01,2013-12-22 18:50:00,
2013-12-22 13:55:00,60.9,59.5,30.00,WNW,292,0.0,2.0,95,0.14,,RA,0.88,VWS V14.01,2013-12-22 18:55:00,
2013-12-22 14:00:00,60.7,59.3,30.00,SW,227,0.0,0.0,95,0.14,,RA,0.88,VWS V14.01,2013-12-22 19:00:00,
2013-12-22 14:05:00,60.7,59.3,30.00,West,271,0.0,1.0,95,0.09,,RA,0.88,VWS V14.01,2013-12-22 19:05:00,
2013-12-22 14:10:00,60.7,59.3,30.00,West,263,0.0,7.0,95,0.08,,RA,0.88,VWS V14.01,2013-12-22 19:10:00,
2013-12-22 14:15:00,60.6,59.2,30.00,West,267,0.0,0.0,95,0.07,,RA,0.88,VWS V14.01,2013-12-22 19:15:00,
2013-12-22 14:20:00,60.6,59.2,29.99,West,264,0.0,0.0,95,0.04,,RA,0.88,VWS V14.01,2013-12-22 19:20:00,
2013-12-22 14:25:00,60.9,59.5,29.99,West,264,0.0,0.0,95,0.04,,RA,0.88,VWS V14.01,2013-12-22 19:25:00,
2013-12-22 14:30:00,61.0,59.6,29.99,West,264,0.0,0.0,95,0.04,,RA,0.88,VWS V14.01,2013-12-22 19:30:00,
2013-12-22 14:35:00,61.0,59.6,29.98,West,264,0.0,0.0,95,0.02,,RA,0.88,VWS V14.01,2013-12-22 19:35:00,
2013-12-22 14:40:00,61.2,59.8,29.98,West,264,0.0,0.0,95,0.01,,RA,0.88,VWS V14.01,2013-12-22 19:40:00,
2013-12-22 14:45:00,61.7,60.5,29.98,West,264,0.0,0.0,96,0.01,,RA,0.88,VWS V14.01,2013-12-22 19:45:00,
2013-12-22 14:50:00,61.8,60.4,29.98,West,264,0.0,0.0,95,0.00,,RA,0.88,VWS V14.01,2013-12-22 19:50:00,
2013-12-22 14:55:00,61.8,60.4,29.98,West,264,0.0,0.0,95,0.00,,RA,0.88,VWS V14.01,2013-12-22 19:55:00,
2013-12-22 15:00:00,61.8,60.4,29.98,South,189,0.0,0.0,95,0.00,,RA,0.88,VWS V14.01,2013-12-22 20:00:00,
2013-12-22 15:05:00,61.7,60.3,29.98,South,185,0.0,0.0,95,0.01,,RA,0.89,VWS V14.01,2013-12-22 20:05:00,
2013-12-22 15:10:00,61.5,60.1,29.98,South,189,0.0,3.0,95,0.04,,RA,0.92,VWS V14.01,2013-12-22 20:10:00,
2013-12-22 15:15:00,61.3,59.9,29.98,South,186,0.0,3.0,95,0.06,,RA,0.94,VWS V14.01,2013-12-22 20:15:00,
2013-12-22 15:20:00,61.2,59.8,29.99,South,191,0.0,3.0,95,0.13,,RA,1.02,VWS V14.01,2013-12-22 20:20:00,
2013-12-22 15:25:00,61.0,59.6,29.99,SSE,168,0.0,6.0,95,0.28,,RA,1.16,VWS V14.01,2013-12-22 20:25:00,
2013-12-22 15:30:00,60.9,59.5,29.99,SSW,208,4.0,4.0,95,0.36,,RA,1.24,VWS V14.01,2013-12-22 20:30:00,
2013-12-22 15:35:00,60.6,59.2,30.00,SSW,195,0.0,3.0,95,0.38,,RA,1.26,VWS V14.01,2013-12-22 20:35:00,
2013-12-22 15:40:00,60.4,59.3,30.00,SW,233,2.0,4.0,96,0.44,,RA,1.32,VWS V14.01,2013-12-22 20:40:00,
2013-12-22 15:45:00,60.4,59.3,30.00,SSE,157,0.0,8.0,96,0.47,,RA,1.35,VWS V14.01,2013-12-22 20:45:00,
2013-12-22 15:50:00,60.2,59.1,30.02,ESE,107,0.0,2.0,96,0.51,,RA,1.39,VWS V14.01,2013-12-22 20:50:00,
2013-12-22 15:55:00,60.2,59.1,30.02,SSE,160,0.0,3.0,96,0.52,,RA,1.40,VWS V14.01,2013-12-22 20:55:00,
2013-12-22 16:00:00,60.2,59.1,30.02,South,169,2.0,3.0,96,0.53,,RA,1.41,VWS V14.01,2013-12-22 21:00:00,
2013-12-22 16:05:00,60.2,59.1,30.02,South,179,0.0,3.0,96,0.53,,RA,1.41,VWS V14.01,2013-12-22 21:05:00,
2013-12-22 16:10:00,60.2,59.1,30.02,South,172,0.0,0.0,96,0.51,,RA,1.41,VWS V14.01,2013-12-22 21:10:00,
2013-12-22 16:15:00,60.2,59.1,30.02,SE,133,0.0,0.0,96,0.49,,RA,1.41,VWS V14.01,2013-12-22 21:15:00,
2013-12-22 16:20:00,60.2,59.1,30.02,NNE,25,0.0,0.0,96,0.50,,RA,1.45,VWS V14.01,2013-12-22 21:20:00,
2013-12-22 16:25:00,60.2,59.1,30.02,NNE,25,0.0,0.0,96,0.41,,RA,1.45,VWS V14.01,2013-12-22 21:25:00,
2013-12-22 16:28:00,60.2,59.1,30.02,SE,124,0.0,0.0,96,0.24,,RA,1.45,VWS V14.01,2013-12-22 21:28:00,
2013-12-22 16:30:00,60.7,59.8,30.02,SSE,151,0.0,5.0,97,0.10,,SCT090,1.55,VWS V15.00,2013-12-22 21:30:00,
2013-12-22 16:33:00,60.2,59.1,30.03,SSE,161,0.0,0.0,96,0.22,,-RA,1.47,VWS V14.01,2013-12-22 21:33:00,
2013-12-22 16:35:00,60.7,59.8,30.02,SW,216,7.0,7.0,97,0.09,,SCT090,1.55,VWS V15.00,2013-12-22 21:35:00,
2013-12-22 16:38:00,60.2,59.1,30.03,SSE,151,0.0,0.0,96,0.20,,-RA,1.48,VWS V14.01,2013-12-22 21:38:00,
2013-12-22 16:40:00,60.9,60.0,30.02,SSE,147,2.0,10.0,97,0.07,,SCT090,1.55,VWS V15.00,2013-12-22 21:40:00,
2013-12-22 16:43:00,60.2,59.1,30.03,SSE,151,0.0,0.0,96,0.16,,-RA,1.49,VWS V14.01,2013-12-22 21:43:00,
2013-12-22 16:45:00,60.9,60.0,30.02,South,174,2.0,7.0,97,0.06,,SCT090,1.55,VWS V15.00,2013-12-22 21:45:00,
2013-12-22 16:48:00,60.2,59.1,30.01,SE,124,0.0,0.0,96,0.13,,-RA,1.50,VWS V14.01,2013-12-22 21:48:00,
2013-12-22 16:50:00,61.0,60.2,30.02,SSE,152,0.0,3.0,97,0.05,,SCT090,1.55,VWS V15.00,2013-12-22 21:50:00,
2013-12-22 16:53:00,60.2,59.1,30.01,SSE,154,0.0,0.0,96,0.10,,-RA,1.50,VWS V14.01,2013-12-22 21:53:00,
2013-12-22 16:55:00,61.0,60.2,30.02,SSE,152,3.0,5.0,97,0.05,,SCT090,1.55,VWS V15.00,2013-12-22 21:55:00,
2013-12-22 16:58:00,60.2,59.1,30.01,SSE,162,1.0,2.0,96,0.09,,-RA,1.50,VWS V14.01,2013-12-22 21:58:00,
2013-12-22 17:00:00,61.0,60.2,30.00,SSE,158,1.0,6.0,97,0.06,,SCT090,1.56,VWS V15.00,2013-12-22 22:00:00,
2013-12-22 17:03:00,60.4,59.5,30.02,SSE,157,0.0,2.0,97,0.09,,-RA,1.50,VWS V14.01,2013-12-22 22:03:00,
2013-12-22 17:05:00,61.0,60.2,30.00,South,174,0.0,7.0,97,0.06,,SCT090,1.56,VWS V15.00,2013-12-22 22:05:00,
2013-12-22 17:08:00,60.4,59.5,30.02,South,172,0.0,5.0,97,0.10,,-RA,1.51,VWS V14.01,2013-12-22 22:08:00,
2013-12-22 17:10:00,61.0,60.2,30.00,South,179,2.0,5.0,97,0.06,,SCT090,1.57,VWS V15.00,2013-12-22 22:10:00,
2013-12-22 17:13:00,60.6,59.8,30.02,South,179,0.0,5.0,97,0.11,,-RA,1.52,VWS V14.01,2013-12-22 22:13:00,
2013-12-22 17:15:00,61.0,60.2,29.99,SSE,168,4.0,7.0,97,0.05,,SCT090,1.57,VWS V15.00,2013-12-22 22:15:00,
2013-12-22 17:18:00,60.6,59.8,30.01,South,169,1.0,6.0,97,0.09,,-RA,1.53,VWS V14.01,2013-12-22 22:18:00,
2013-12-22 17:20:00,61.2,60.3,29.99,South,175,6.0,8.0,97,0.04,,SCT090,1.57,VWS V15.00,2013-12-22 22:20:00,
2013-12-22 17:23:00,60.6,59.8,30.01,South,178,0.0,5.0,97,0.09,,-RA,1.54,VWS V14.01,2013-12-22 22:23:00,
2013-12-22 17:25:00,61.2,60.3,29.99,SE,136,0.0,10.0,97,0.03,,SCT090,1.57,VWS V15.00,2013-12-22 22:25:00,
2013-12-22 17:28:00,60.7,59.8,30.01,SSE,158,0.0,3.0,97,0.10,,-RA,1.55,VWS V14.01,2013-12-22 22:28:00,
2013-12-22 17:30:00,61.3,60.4,29.99,South,182,2.0,11.0,97,0.02,,SCT090,1.57,VWS V15.00,2013-12-22 22:30:00,
2013-12-22 17:33:00,60.7,59.8,30.02,SSE,151,0.0,0.0,97,0.09,,RA,1.55,VWS V14.01,2013-12-22 22:33:00,
2013-12-22 17:35:00,61.3,60.4,29.99,SSE,158,2.0,14.0,97,0.02,,SCT090,1.57,VWS V15.00,2013-12-22 22:35:00,
2013-12-22 17:38:00,60.9,60.0,30.02,South,172,0.0,10.0,97,0.07,,RA,1.55,VWS V14.01,2013-12-22 22:38:00,
2013-12-22 17:40:00,61.3,60.4,29.99,SSE,168,0.0,13.0,97,0.02,,SCT090,1.57,VWS V15.00,2013-12-22 22:40:00,
2013-12-22 17:43:00,60.9,60.0,30.02,South,175,1.0,7.0,97,0.06,,RA,1.55,VWS V14.01,2013-12-22 22:43:00,
2013-12-22 17:45:00,61.5,60.6,29.98,South,172,2.0,13.0,97,0.02,,SCT090,1.57,VWS V15.00,2013-12-22 22:45:00,
2013-12-22 17:48:00,61.0,60.2,30.02,SSE,160,0.0,3.0,97,0.05,,-RA,1.55,VWS V14.01,2013-12-22 22:48:00,
2013-12-22 17:50:00,61.5,60.6,29.98,South,176,0.0,8.0,97,0.02,,SCT090,1.57,VWS V15.00,2013-12-22 22:50:00,
2013-12-22 17:53:00,61.0,60.2,30.02,South,181,0.0,5.0,97,0.05,,-RA,1.55,VWS V14.01,2013-12-22 22:53:00,
2013-12-22 17:55:00,61.5,60.6,29.98,SSE,164,0.0,8.0,97,0.02,,SCT090,1.57,VWS V15.00,2013-12-22 22:55:00,
2013-12-22 17:58:00,61.0,60.2,30.02,SSE,160,0.0,5.0,97,0.06,,-RA,1.56,VWS V14.01,2013-12-22 22:58:00,
2013-12-22 18:00:00,61.5,60.6,29.99,SSE,167,2.0,8.0,97,0.02,,SCT090,1.57,VWS V15.00,2013-12-22 23:00:00,
2013-12-22 18:03:00,61.0,60.2,30.00,SSE,162,2.0,3.0,97,0.06,,-RA,1.56,VWS V14.01,2013-12-22 23:03:00,
2013-12-22 18:05:00,61.5,60.6,29.99,SSW,192,3.0,7.0,97,0.01,,SCT090,1.57,VWS V15.00,2013-12-22 23:05:00,
2013-12-22 18:08:00,61.0,60.2,30.00,South,182,0.0,0.0,97,0.05,,-RA,1.57,VWS V14.01,2013-12-22 23:08:00,
2013-12-22 18:10:00,61.5,60.6,29.99,SSE,164,2.0,8.0,97,0.01,,SCT090,1.57,VWS V15.00,2013-12-22 23:10:00,
2013-12-22 18:13:00,61.0,60.2,30.00,SE,140,5.0,5.0,97,0.05,,-RA,1.57,VWS V14.01,2013-12-22 23:13:00,
2013-12-22 18:15:00,61.5,60.6,30.00,South,175,0.0,8.0,97,0.00,,SCT090,1.57,VWS V15.00,2013-12-22 23:15:00,
2013-12-22 18:18:00,61.2,60.3,29.99,SE,141,3.0,7.0,97,0.04,,-RA,1.57,VWS V14.01,2013-12-22 23:18:00,
2013-12-22 18:20:00,61.5,60.6,30.00,SSE,167,0.0,3.0,97,0.00,,SCT090,1.57,VWS V15.00,2013-12-22 23:20:00,
2013-12-22 18:23:00,61.2,60.3,29.99,SE,144,1.0,7.0,97,0.03,,-RA,1.57,VWS V14.01,2013-12-22 23:23:00,
2013-12-22 18:25:00,61.5,60.6,30.00,South,178,0.0,6.0,97,0.00,,SCT090,1.57,VWS V15.00,2013-12-22 23:25:00,
2013-12-22 18:28:00,61.2,60.3,29.99,SSE,158,5.0,8.0,97,0.02,,-RA,1.57,VWS V14.01,2013-12-22 23:28:00,
2013-12-22 18:30:00,61.5,60.6,30.01,SSW,206,0.0,0.0,97,0.00,,SCT090,1.57,VWS V15.00,2013-12-22 23:30:00,
2013-12-22 18:33:00,61.3,60.4,29.99,SW,220,14.0,14.0,97,0.02,,-RA,1.57,VWS V14.01,2013-12-22 23:33:00,
2013-12-22 18:35:00,61.5,60.6,30.01,South,182,0.0,7.0,97,0.00,,SCT090,1.57,VWS V15.00,2013-12-22 23:35:00,
2013-12-22 18:38:00,61.3,60.4,29.99,SSE,160,4.0,7.0,97,0.02,,-RA,1.57,VWS V14.01,2013-12-22 23:38:00,
2013-12-22 18:40:00,61.7,60.8,30.01,South,178,1.0,6.0,97,0.00,,SCT090,1.57,VWS V15.00,2013-12-22 23:40:00,
2013-12-22 18:43:00,61.3,60.4,29.99,SSE,167,10.0,13.0,97,0.02,,-RA,1.57,VWS V14.01,2013-12-22 23:43:00,
2013-12-22 18:45:00,61.7,60.8,30.01,South,189,7.0,7.0,97,0.00,,SCT090,1.57,VWS V15.00,2013-12-22 23:45:00,
2013-12-22 18:48:00,61.5,60.6,29.98,South,184,0.0,7.0,97,0.02,,-RA,1.57,VWS V14.01,2013-12-22 23:48:00,
2013-12-22 18:50:00,61.8,60.9,30.01,SSE,162,2.0,12.0,97,0.00,,SCT090,1.57,VWS V15.00,2013-12-22 23:50:00,
2013-12-22 18:53:00,61.5,60.6,29.98,South,186,5.0,6.0,97,0.02,,-RA,1.57,VWS V14.01,2013-12-22 23:53:00,
2013-12-22 18:55:00,61.8,60.9,30.01,SSW,206,2.0,16.0,97,0.00,,SCT090,1.57,VWS V15.00,2013-12-22 23:55:00,
2013-12-22 18:58:00,61.5,60.6,29.98,South,174,2.0,7.0,97,0.02,,-RA,1.57,VWS V14.01,2013-12-22 23:58:00,
2013-12-22 19:00:00,62.0,61.1,30.01,SSE,164,5.0,11.0,97,0.00,,SCT090,1.57,VWS V15.00,2013-12-23 00:00:00,
2013-12-22 19:03:00,61.5,60.6,29.99,SSE,147,3.0,6.0,97,0.01,,-RA,1.57,VWS V14.01,2013-12-23 00:03:00,
2013-12-22 19:05:00,62.1,61.2,30.01,South,184,3.0,13.0,97,0.00,,SCT090,1.57,VWS V15.00,2013-12-23 00:05:00,
2013-12-22 19:08:00,61.5,60.6,29.99,SSE,158,0.0,6.0,97,0.01,,-RA,1.57,VWS V14.01,2013-12-23 00:08:00,
2013-12-22 19:10:00,62.1,61.2,30.01,SSE,162,0.0,7.0,97,0.00,,SCT090,1.57,VWS V15.00,2013-12-23 00:10:00,
2013-12-22 19:13:00,61.5,60.6,29.99,South,184,6.0,6.0,97,0.00,,-RA,1.57,VWS V14.01,2013-12-23 00:13:00,
2013-12-22 19:15:00,62.1,61.2,30.00,South,188,0.0,5.0,97,0.00,,SCT090,1.57,VWS V15.00,2013-12-23 00:15:00,
2013-12-22 19:18:00,61.5,60.6,30.00,South,175,0.0,0.0,97,0.00,,-RA,1.57,VWS V14.01,2013-12-23 00:18:00,
2013-12-22 19:20:00,62.1,61.2,30.00,South,184,0.0,11.0,97,0.00,,SCT090,1.57,VWS V15.00,2013-12-23 00:20:00,
2013-12-22 19:23:00,61.5,60.6,30.00,South,189,0.0,4.0,97,0.00,,-RA,1.57,VWS V14.01,2013-12-23 00:23:00,
2013-12-22 19:25:00,62.1,61.2,30.00,SSW,209,5.0,11.0,97,0.00,,SCT090,1.57,VWS V15.00,2013-12-23 00:25:00,
2013-12-22 19:28:00,61.5,60.6,30.00,South,178,0.0,0.0,97,0.00,,-RA,1.57,VWS V14.01,2013-12-23 00:28:00,
2013-12-22 19:30:00,62.1,61.2,29.98,South,186,3.0,7.0,97,0.00,,SCT090,1.57,VWS V15.00,2013-12-23 00:30:00,
2013-12-22 19:33:00,61.5,60.6,30.01,SSE,164,0.0,1.0,97,0.00,,-RA,1.57,VWS V14.01,2013-12-23 00:33:00,
2013-12-22 19:35:00,62.1,61.2,29.98,South,186,6.0,8.0,97,0.00,,SCT090,1.57,VWS V15.00,2013-12-23 00:35:00,
2013-12-22 19:38:00,61.5,60.6,30.01,SSW,205,0.0,2.0,97,0.00,,-RA,1.57,VWS V14.01,2013-12-23 00:38:00,
2013-12-22 19:40:00,62.1,61.2,29.98,South,178,6.0,10.0,97,0.00,,SCT090,1.57,VWS V15.00,2013-12-23 00:40:00,
2013-12-22 19:43:00,61.7,60.8,30.01,South,172,0.0,1.0,97,0.00,,-RA,1.57,VWS V14.01,2013-12-23 00:43:00,
2013-12-22 19:45:00,62.3,61.4,29.98,SSW,199,10.0,13.0,97,0.00,,SCT090,1.57,VWS V15.00,2013-12-23 00:45:00,
2013-12-22 19:48:00,61.7,60.8,30.01,South,179,2.0,10.0,97,0.00,,RA,1.57,VWS V14.01,2013-12-23 00:48:00,
2013-12-22 19:50:00,62.3,61.4,29.98,SSE,162,4.0,13.0,97,0.00,,SCT090,1.57,VWS V15.00,2013-12-23 00:50:00,
2013-12-22 19:53:00,61.8,60.9,30.01,SSE,167,3.0,3.0,97,0.00,,RA,1.57,VWS V14.01,2013-12-23 00:53:00,
2013-12-22 19:55:00,62.3,61.4,29.98,SSW,198,1.0,11.0,97,0.00,,SCT090,1.57,VWS V15.00,2013-12-23 00:55:00,
2013-12-22 19:58:00,62.0,61.1,30.01,SE,136,0.0,7.0,97,0.00,,RA,1.57,VWS V14.01,2013-12-23 00:58:00,
2013-12-22 20:00:00,62.4,61.2,29.97,South,188,0.0,14.0,96,0.00,,SCT090,1.57,VWS V15.00,2013-12-23 01:00:00,
2013-12-22 20:03:00,62.0,61.1,30.01,South,175,3.0,7.0,97,0.00,,-RA,1.57,VWS V14.01,2013-12-23 01:03:00,
2013-12-22 20:05:00,62.4,61.2,29.97,SE,128,0.0,7.0,96,0.00,,SCT090,1.57,VWS V15.00,2013-12-23 01:05:00,
2013-12-22 20:08:00,62.1,61.2,30.01,South,179,2.0,6.0,97,0.00,,-RA,1.57,VWS V14.01,2013-12-23 01:08:00,
2013-12-22 20:10:00,62.3,61.2,29.97,SSW,202,2.0,4.0,96,0.00,,SCT090,1.57,VWS V15.00,2013-12-23 01:10:00,
2013-12-22 20:13:00,62.1,61.2,30.01,South,174,2.0,5.0,97,0.00,,-RA,1.57,VWS V14.01,2013-12-23 01:13:00,
2013-12-22 20:15:00,62.4,61.2,29.98,South,175,5.0,8.0,96,0.00,,SCT090,1.57,VWS V15.00,2013-12-23 01:15:00,
2013-12-22 20:18:00,62.1,61.2,30.00,South,172,2.0,2.0,97,0.00,,-RA,1.57,VWS V14.01,2013-12-23 01:18:00,
2013-12-22 20:20:00,62.4,61.2,29.98,South,176,5.0,7.0,96,0.00,,SCT090,1.57,VWS V15.00,2013-12-23 01:20:00,
2013-12-22 20:23:00,62.1,61.2,30.00,SE,137,2.0,7.0,97,0.00,,-RA,1.57,VWS V14.01,2013-12-23 01:23:00,
2013-12-22 20:25:00,62.4,61.2,29.98,SSW,196,3.0,10.0,96,0.00,,SCT090,1.57,VWS V15.00,2013-12-23 01:25:00,
2013-12-22 20:28:00,62.1,61.2,30.00,South,181,5.0,6.0,97,0.00,,-RA,1.57,VWS V14.01,2013-12-23 01:28:00,
2013-12-22 20:30:00,62.4,61.2,29.98,SSE,167,3.0,10.0,96,0.00,,SCT090,1.57,VWS V15.00,2013-12-23 01:30:00,
2013-12-22 20:33:00,62.1,61.2,29.98,SSE,160,0.0,6.0,97,0.00,,-RA,1.57,VWS V14.01,2013-12-23 01:33:00,
2013-12-22 20:35:00,62.4,61.2,29.98,South,169,3.0,7.0,96,0.00,,SCT090,1.57,VWS V15.00,2013-12-23 01:35:00,
2013-12-22 20:38:00,62.1,61.2,29.98,South,184,8.0,8.0,97,0.00,,-RA,1.57,VWS V14.01,2013-12-23 01:38:00,
2013-12-22 20:40:00,62.4,61.2,29.98,South,178,6.0,8.0,96,0.00,,SCT090,1.57,VWS V15.00,2013-12-23 01:40:00,
2013-12-22 20:43:00,62.1,61.2,29.98,SSW,195,5.0,6.0,97,0.00,,-RA,1.57,VWS V14.01,2013-12-23 01:43:00,
2013-12-22 20:45:00,62.4,61.2,29.96,SE,143,0.0,8.0,96,0.00,,SCT090,1.57,VWS V15.00,2013-12-23 01:45:00,
2013-12-22 20:48:00,62.3,61.4,29.98,SSE,164,5.0,13.0,97,0.00,,-RA,1.57,VWS V14.01,2013-12-23 01:48:00,
2013-12-22 20:50:00,62.4,61.2,29.96,SSE,158,0.0,7.0,96,0.00,,SCT090,1.57,VWS V15.00,2013-12-23 01:50:00,
2013-12-22 20:53:00,62.3,61.4,29.98,South,191,0.0,7.0,97,0.00,,-RA,1.57,VWS V14.01,2013-12-23 01:53:00,
2013-12-22 20:55:00,62.4,61.2,29.96,South,174,0.0,4.0,96,0.00,,SCT090,1.57,VWS V15.00,2013-12-23 01:55:00,
2013-12-22 20:58:00,62.3,61.4,29.98,SSE,157,8.0,14.0,97,0.00,,-RA,1.57,VWS V14.01,2013-12-23 01:58:00,
2013-12-22 21:00:00,62.3,61.2,29.98,SSW,192,0.0,0.0,96,0.00,,SCT090,1.57,VWS V15.00,2013-12-23 02:00:00,
2013-12-22 21:03:00,62.4,61.2,29.97,SW,215,0.0,7.0,96,0.00,,-RA,1.57,VWS V14.01,2013-12-23 02:03:00,
2013-12-22 21:05:00,62.3,61.2,29.98,SSE,162,0.0,3.0,96,0.00,,SCT090,1.57,VWS V15.00,2013-12-23 02:05:00,
2013-12-22 21:08:00,62.4,61.2,29.97,South,172,0.0,4.0,96,0.00,,-RA,1.57,VWS V14.01,2013-12-23 02:08:00,
2013-12-22 21:10:00,62.3,61.2,29.98,South,176,0.0,5.0,96,0.00,,SCT090,1.57,VWS V15.00,2013-12-23 02:10:00,
2013-12-22 21:13:00,62.4,61.2,29.97,South,191,0.0,8.0,96,0.00,,-RA,1.57,VWS V14.01,2013-12-23 02:13:00,
2013-12-22 21:15:00,62.3,61.2,29.98,South,169,0.0,0.0,96,0.00,,SCT090,1.57,VWS V15.00,2013-12-23 02:15:00,
2013-12-22 21:18:00,62.4,61.2,29.98,South,178,0.0,5.0,96,0.00,,-RA,1.57,VWS V14.01,2013-12-23 02:18:00,
2013-12-22 21:20:00,62.3,61.2,29.98,South,169,0.0,0.0,96,0.00,,SCT090,1.57,VWS V15.00,2013-12-23 02:20:00,
2013-12-22 21:23:00,62.4,61.2,29.98,SSE,157,2.0,10.0,96,0.00,,-RA,1.57,VWS V14.01,2013-12-23 02:23:00,
2013-12-22 21:25:00,62.3,61.2,29.98,South,185,0.0,2.0,96,0.00,,SCT090,1.57,VWS V15.00,2013-12-23 02:25:00,
2013-12-22 21:28:00,62.4,61.2,29.98,South,184,3.0,6.0,96,0.00,,-RA,1.57,VWS V14.01,2013-12-23 02:28:00,
2013-12-22 21:30:00,62.3,61.2,29.99,South,185,0.0,0.0,96,0.00,,SCT090,1.57,VWS V15.00,2013-12-23 02:30:00,
2013-12-22 21:33:00,62.4,61.2,29.98,South,178,1.0,7.0,96,0.00,,-RA,1.57,VWS V14.01,2013-12-23 02:33:00,
2013-12-22 21:35:00,62.3,61.2,29.99,SE,144,0.0,0.0,96,0.00,,SCT090,1.57,VWS V15.00,2013-12-23 02:35:00,
2013-12-22 21:38:00,62.4,61.2,29.98,SSE,164,3.0,3.0,96,0.00,,-RA,1.57,VWS V14.01,2013-12-23 02:38:00,
2013-12-22 21:40:00,62.3,61.2,29.99,SSW,209,0.0,0.0,96,0.00,,SCT090,1.57,VWS V15.00,2013-12-23 02:40:00,
2013-12-22 21:43:00,62.4,61.2,29.98,SSW,196,2.0,8.0,96,0.00,,-RA,1.57,VWS V14.01,2013-12-23 02:43:00,
2013-12-22 21:45:00,62.3,61.2,29.99,SSE,165,0.0,3.0,96,0.00,,SCT090,1.57,VWS V15.00,2013-12-23 02:45:00,
2013-12-22 21:48:00,62.4,61.2,29.96,SSE,152,1.0,7.0,96,0.00,,-RA,1.57,VWS V14.01,2013-12-23 02:48:00,
2013-12-22 21:50:00,62.3,60.8,29.99,SSE,162,0.0,1.0,95,0.00,,SCT090,1.57,VWS V15.00,2013-12-23 02:50:00,
2013-12-22 21:53:00,62.4,61.2,29.96,South,171,0.0,4.0,96,0.00,,-RA,1.57,VWS V14.01,2013-12-23 02:53:00,
2013-12-22 21:55:00,62.1,60.7,29.99,NW,305,2.0,2.0,95,0.01,,SCT090,1.58,VWS V15.00,2013-12-23 02:55:00,
2013-12-22 21:58:00,62.4,61.2,29.96,South,189,0.0,0.0,96,0.00,,-RA,1.57,VWS V14.01,2013-12-23 02:58:00,
2013-12-22 22:00:00,62.1,60.7,29.99,South,171,0.0,2.0,95,0.01,,SCT090,1.58,VWS V15.00,2013-12-23 03:00:00,
2013-12-22 22:03:00,62.3,61.2,29.98,SSW,192,0.0,0.0,96,0.00,,-RA,1.57,VWS V14.01,2013-12-23 03:03:00,
2013-12-22 22:05:00,62.3,61.2,29.99,SSW,196,0.0,5.0,96,0.01,,SCT090,1.58,VWS V15.00,2013-12-23 03:05:00,
2013-12-22 22:08:00,62.3,61.2,29.98,SSE,162,0.0,0.0,96,0.00,,-RA,1.57,VWS V14.01,2013-12-23 03:08:00,
2013-12-22 22:10:00,62.3,61.2,29.99,SSE,160,0.0,3.0,96,0.01,,SCT090,1.58,VWS V15.00,2013-12-23 03:10:00,
2013-12-22 22:13:00,62.3,61.2,29.98,South,169,0.0,0.0,96,0.00,,-RA,1.57,VWS V14.01,2013-12-23 03:13:00,
2013-12-22 22:15:00,62.3,61.2,29.98,SSW,198,0.0,3.0,96,0.01,,SCT090,1.58,VWS V15.00,2013-12-23 03:15:00,
2013-12-22 22:18:00,62.3,61.2,29.98,SSE,168,0.0,0.0,96,0.00,,-RA,1.57,VWS V14.01,2013-12-23 03:18:00,
2013-12-22 22:20:00,62.3,61.2,29.98,SSW,196,0.0,8.0,96,0.01,,SCT090,1.58,VWS V15.00,2013-12-23 03:20:00,
2013-12-22 22:23:00,62.3,61.2,29.98,South,169,0.0,0.0,96,0.00,,-RA,1.57,VWS V14.01,2013-12-23 03:23:00,
2013-12-22 22:25:00,62.4,61.2,29.98,South,179,0.0,6.0,96,0.01,,SCT090,1.58,VWS V15.00,2013-12-23 03:25:00,
2013-12-22 22:28:00,62.3,61.2,29.98,South,185,0.0,0.0,96,0.00,,-RA,1.57,VWS V14.01,2013-12-23 03:28:00,
2013-12-22 22:30:00,62.4,61.2,29.97,SSE,158,3.0,6.0,96,0.01,,SCT090,1.58,VWS V15.00,2013-12-23 03:30:00,
2013-12-22 22:33:00,62.3,60.8,29.99,South,188,0.0,0.0,95,0.00,,-RA,1.57,VWS V14.01,2013-12-23 03:33:00,
2013-12-22 22:35:00,62.6,61.5,29.97,SSE,155,3.0,8.0,96,0.01,,SCT090,1.58,VWS V15.00,2013-12-23 03:35:00,
2013-12-22 22:38:00,62.3,61.2,29.99,SE,145,0.0,0.0,96,0.00,,-RA,1.57,VWS V14.01,2013-12-23 03:38:00,
2013-12-22 22:40:00,62.6,61.2,29.97,SSW,193,6.0,7.0,95,0.01,,SCT090,1.58,VWS V15.00,2013-12-23 03:40:00,
2013-12-22 22:43:00,62.3,61.2,29.99,SSW,206,0.0,0.0,96,0.00,,-RA,1.57,VWS V14.01,2013-12-23 03:43:00,
2013-12-22 22:45:00,62.6,61.5,29.96,SSE,154,0.0,9.0,96,0.01,,SCT090,1.58,VWS V15.00,2013-12-23 03:45:00,
2013-12-22 22:48:00,62.3,61.2,29.99,SSE,162,1.0,1.0,96,0.00,,-RA,1.57,VWS V14.01,2013-12-23 03:48:00,
2013-12-22 22:50:00,62.6,61.2,29.96,South,182,0.0,6.0,95,0.01,,SCT090,1.58,VWS V15.00,2013-12-23 03:50:00,
2013-12-22 22:53:00,62.3,60.8,29.99,SSE,162,0.0,0.0,95,0.00,,-RA,1.57,VWS V14.01,2013-12-23 03:53:00,
2013-12-22 22:55:00,62.6,61.5,29.96,South,182,0.0,5.0,96,0.01,,SCT090,1.58,VWS V15.00,2013-12-23 03:55:00,
2013-12-22 22:58:00,62.1,60.7,29.99,WNW,298,1.0,2.0,95,0.01,,-RA,1.58,VWS V14.01,2013-12-23 03:58:00,
2013-12-22 23:00:00,62.6,61.2,29.96,South,179,1.0,5.0,95,0.00,,SCT090,1.58,VWS V15.00,2013-12-23 04:00:00,
2013-12-22 23:03:00,62.1,61.0,29.99,South,185,0.0,0.0,96,0.01,,-RA,1.58,VWS V14.01,2013-12-23 04:03:00,
2013-12-22 23:05:00,62.6,61.2,29.96,South,175,4.0,6.0,95,0.00,,SCT090,0.00,VWS V15.00,2013-12-23 04:05:00,
2013-12-22 23:08:00,62.3,61.2,29.99,SSE,150,2.0,3.0,96,0.01,,-RA,1.58,VWS V14.01,2013-12-23 04:08:00,
2013-12-22 23:10:00,62.8,61.3,29.96,South,171,0.0,4.0,95,0.00,,SCT090,0.00,VWS V15.00,2013-12-23 04:10:00,
2013-12-22 23:13:00,62.3,61.2,29.99,South,188,1.0,3.0,96,0.01,,-RA,1.58,VWS V14.01,2013-12-23 04:13:00,
2013-12-22 23:15:00,62.8,61.7,29.96,SW,216,0.0,8.0,96,0.00,,SCT090,0.00,VWS V15.00,2013-12-23 04:15:00,
2013-12-22 23:18:00,62.3,61.2,29.98,SSW,198,0.0,0.0,96,0.01,,-RA,1.58,VWS V14.01,2013-12-23 04:18:00,
2013-12-22 23:20:00,62.8,61.3,29.96,SSE,167,0.0,5.0,95,0.00,,SCT090,0.00,VWS V15.00,2013-12-23 04:20:00,
2013-12-22 23:23:00,62.3,61.2,29.98,SW,223,0.0,5.0,96,0.01,,-RA,1.58,VWS V14.01,2013-12-23 04:23:00,
2013-12-22 23:25:00,62.8,61.3,29.96,SSE,165,0.0,5.0,95,0.00,,SCT090,0.00,VWS V15.00,2013-12-23 04:25:00,
2013-12-22 23:28:00,62.4,61.2,29.98,SSE,164,1.0,6.0,96,0.01,,-RA,1.58,VWS V14.01,2013-12-23 04:28:00,
2013-12-22 23:30:00,62.9,61.8,29.97,SSW,192,0.0,6.0,96,0.00,,SCT090,0.00,VWS V15.00,2013-12-23 04:30:00,
2013-12-22 23:33:00,62.4,61.2,29.97,SSE,157,0.0,3.0,96,0.01,,-RA,1.58,VWS V14.01,2013-12-23 04:33:00,
2013-12-22 23:35:00,62.9,61.8,29.97,South,179,0.0,6.0,96,0.00,,SCT090,0.00,VWS V15.00,2013-12-23 04:35:00,
2013-12-22 23:38:00,62.6,61.5,29.97,South,186,0.0,5.0,96,0.01,,-RA,1.58,VWS V14.01,2013-12-23 04:38:00,
2013-12-22 23:40:00,63.1,61.9,29.97,SSE,167,0.0,8.0,96,0.00,,SCT090,0.00,VWS V15.00,2013-12-23 04:40:00,
2013-12-22 23:43:00,62.6,61.5,29.97,South,179,0.0,9.0,96,0.01,,-RA,1.58,VWS V14.01,2013-12-23 04:43:00,
2013-12-22 23:45:00,63.1,61.7,29.97,SSE,167,0.0,6.0,95,0.00,,SCT090,0.00,VWS V15.00,2013-12-23 04:45:00,
2013-12-22 23:48:00,62.6,61.2,29.96,South,188,4.0,6.0,95,0.01,,-RA,1.58,VWS V14.01,2013-12-23 04:48:00,
2013-12-22 23:50:00,63.1,61.7,29.97,South,181,0.0,6.0,95,0.00,,SCT090,0.00,VWS V15.00,2013-12-23 04:50:00,
2013-12-22 23:53:00,62.6,61.2,29.96,South,182,0.0,0.0,95,0.01,,-RA,1.58,VWS V14.01,2013-12-23 04:53:00,
2013-12-22 23:55:00,63.1,61.7,29.97,SW,215,0.0,6.0,95,0.00,,SCT090,0.00,VWS V15.00,2013-12-23 04:55:00,
2013-12-22 23:58:00,62.6,61.5,29.96,SSW,199,0.0,5.0,96,0.00,,-RA,1.58,VWS V14.01,2013-12-23 04:58:00,